User: anonymous   Login
Location: Peebles
(55.6412°N, 3.1714°W)
Time: 02:07:34
(UTC+01:00)
Language:

NOAA 16 DEB - Orbit

View from above orbital plane
View from above orbital plane
View from above satellite
View from above satellite

Ground track
Ground track

The orbit data is extracted from the following two-line orbital elements,

1 41654U 00055NT  22181.39242309  .00000956  00000-0  51543-3 0  9997
2 41654  98.7102 238.0094 0044557  20.4786 339.8161 14.14564742319649
Epoch (UTC): 30 June 2022 09:25:05
Eccentricity: 0.0044557
inclination: 98.7102°
perigee height: 811 km
apogee height: 876 km
right ascension of ascending node: 238.0094°
argument of perigee: 20.4786°
revolutions per day: 14.14564742
mean anomaly at epoch: 339.8161°
orbit number at epoch: 31964

The dashed part of the orbit path shows where the satellite is in the earth's shadow,  

DLR